Regional Weather Roundup
Issued by NWS

Home | Current Version | Previous Version | Text Only | Print | Product List | Glossary Off
Versions: 1 2 3 4 5 6 7 8 9 10 11 12 13 14 15 16 17 18 19 20 21 22 23 24 25 26 27 28 29 30 31 32 33 34 35 36 37 38 39 40 41 42 43 44 45 46 47 48 49 50

000
ASUS43 KLSX 041307
RWRMO

WEATHER SUMMARY FOR MISSOURI
NATIONAL WEATHER SERVICE SPRINGFIELD MO
800 AM CDT SAT JUL 04 2015

NOTE: "FAIR" INDICATES FEW OR NO CLOUDS BELOW 12,000 FEET WITH NO
       SIGNIFICANT WEATHER AND/OR OBSTRUCTIONS TO VISIBILITY.
       CURRENT SKY AND/OR WEATHER CONDITIONS ARE NOT AVAILABLE FOR
       CHILLICOTHE AND FARMINGTON.

MOZ001>031-035>038-043-044-053-054-041400-
...NORTHERN AND WESTERN MISSOURI...

CITY           SKY/WX    TMP DP  RH WIND       PRES   REMARKS
KANSAS CTY INT MOSUNNY   68  60  75 E5        30.01R
KANSAS C DTWN  SUNNY     67  62  84 CALM      30.01R
LEE`S SUMMIT   SUNNY     66  62  87 E5        30.02R
ST JOSEPH      SUNNY     63  61  93 CALM      30.01R
CHILLICOTHE      N/A     65  62  90 CALM      30.03R
KIRKSVILLE     SUNNY     66  60  81 CALM      30.03R

$$
MOZ066>068-077>081-088>096-101>105-041400-
...SOUTHWEST MISSOURI...

CITY           SKY/WX    TMP DP  RH WIND       PRES   REMARKS
SPRINGFIELD    CLOUDY    69  63  81 SE3       30.01R
JOPLIN         MOSUNNY   70  65  84 VRB5      30.00R

$$
MOZ032>034-039>042-045>050-055>058-069>072-041400-
...CENTRAL MISSOURI...

CITY           SKY/WX    TMP DP  RH WIND       PRES   REMARKS
COLUMBIA       SUNNY     68  62  81 NE3       30.02R
JEFFERSON CITY SUNNY     64  61  90 CALM      30.01R
ROLLA          SUNNY     68  65  90 E5        30.01R FOG
SEDALIA        SUNNY     68  63  84 CALM      30.03R
WHITEMAN AFB   SUNNY     67  64  89 E2        30.01R
WARRENSBURG    SUNNY     63  63 100 CALM      30.02R
OSAGE BEACH    SUNNY     64  61  88 CALM      30.01R

$$
MOZ051-052-059>065-041400-
...EAST CENTRAL MISSOURI...

CITY           SKY/WX    TMP DP  RH WIND       PRES   REMARKS
ST LOUIS INTL  SUNNY     72  64  78 CALM      30.02R HAZE
SPIRIT OF STL  SUNNY     68  67  96 CALM      30.01R FOG
ST CHARLES     SUNNY     70  67  90 CALM      30.01R FOG

$$
MOZ072>076-082>087-097>100-106>115-041400-
...SOUTH CENTRAL AND SOUTHEAST MISSOURI...

CITY           SKY/WX    TMP DP  RH WIND       PRES   REMARKS
CAPE GIRARDEAU MOSUNNY   73  70  90 E6        29.98R
FARMINGTON     SUNNY     66  66 100 CALM      30.05R
POPLAR BLUFF   MOSUNNY   72  69  90 NE3       29.98R FOG
WEST PLAINS    SUNNY     69  65  86 NE3       30.03R FOG

$$


USA.gov is the U.S. government's official web portal to all federal, state and local government web resources and services.